Time,TemperatureF,DewpointF,PressureIn,WindDirection,WindDirectionDegrees,WindSpeedMPH,WindSpeedGustMPH,Humidity,HourlyPrecipIn,Conditions,Clouds,dailyrainin,SoftwareType,DateUTC
2013-09-12 00:02:00,47.0,43.0,-100.00,SSE,160,9.0,11.0,86,-99.99,,,-99.99,,2013-09-12 08:02:00,
2013-09-12 00:11:00,47.0,43.0,-100.00,SSE,160,9.0,11.0,86,-99.99,,,-99.99,,2013-09-12 08:11:00,
2013-09-12 00:22:00,47.0,42.0,-100.00,South,185,12.0,17.0,80,-99.99,,,-99.99,,2013-09-12 08:22:00,
2013-09-12 00:32:00,47.0,42.0,-100.00,South,185,12.0,17.0,80,-99.99,,,-99.99,,2013-09-12 08:32:00,
2013-09-12 00:42:00,47.0,42.0,-100.00,South,185,12.0,17.0,80,-99.99,,,-99.99,,2013-09-12 08:42:00,
2013-09-12 00:52:00,48.0,42.0,-100.00,SSE,165,9.0,16.0,79,-99.99,,,-99.99,,2013-09-12 08:52:00,
2013-09-12 01:02:00,48.0,42.0,-100.00,SSE,165,9.0,16.0,79,-99.99,,,-99.99,,2013-09-12 09:02:00,
2013-09-12 01:12:00,48.0,42.0,-100.00,SSE,165,9.0,16.0,79,-99.99,,,-99.99,,2013-09-12 09:12:00,
2013-09-12 01:21:00,48.0,42.0,-100.00,South,170,9.0,12.0,79,-99.99,,,-99.99,,2013-09-12 09:21:00,
2013-09-12 01:33:00,48.0,42.0,-100.00,South,170,9.0,12.0,79,-99.99,,,-99.99,,2013-09-12 09:33:00,
2013-09-12 01:43:00,48.0,42.0,-100.00,South,170,9.0,12.0,79,-99.99,,,-99.99,,2013-09-12 09:43:00,
2013-09-12 01:53:00,48.0,43.0,-100.00,SSE,160,9.0,13.0,83,-99.99,,,-99.99,,2013-09-12 09:53:00,
2013-09-12 02:03:00,48.0,43.0,-100.00,SSE,160,9.0,13.0,83,-99.99,,,-99.99,,2013-09-12 10:03:00,
2013-09-12 02:12:00,48.0,43.0,-100.00,SSE,160,9.0,13.0,83,-99.99,,,-99.99,,2013-09-12 10:12:00,
2013-09-12 02:23:00,48.0,44.0,-100.00,South,170,6.0,8.0,86,-99.99,,,-99.99,,2013-09-12 10:23:00,
2013-09-12 02:33:00,48.0,44.0,-100.00,South,170,6.0,8.0,86,-99.99,,,-99.99,,2013-09-12 10:33:00,
2013-09-12 02:43:00,48.0,44.0,-100.00,South,170,6.0,8.0,86,-99.99,,,-99.99,,2013-09-12 10:43:00,
2013-09-12 02:53:00,48.0,45.0,-100.00,SSW,195,4.0,7.0,87,-99.99,,,-99.99,,2013-09-12 10:53:00,
2013-09-12 03:03:00,48.0,45.0,-100.00,SSW,195,4.0,7.0,87,-99.99,,,-99.99,,2013-09-12 11:03:00,
2013-09-12 03:11:00,48.0,45.0,-100.00,SSW,195,4.0,7.0,87,-99.99,,,-99.99,,2013-09-12 11:11:00,
2013-09-12 03:22:00,49.0,45.0,-100.00,SW,225,9.0,12.0,85,-99.99,,,-99.99,,2013-09-12 11:22:00,
2013-09-12 03:33:00,49.0,45.0,-100.00,SW,225,9.0,12.0,85,-99.99,,,-99.99,,2013-09-12 11:33:00,
2013-09-12 03:42:00,49.0,45.0,-100.00,SW,225,9.0,12.0,85,-99.99,,,-99.99,,2013-09-12 11:42:00,
2013-09-12 03:52:00,49.0,46.0,-100.00,SSW,200,6.0,12.0,86,-99.99,,,-99.99,,2013-09-12 11:52:00,
2013-09-12 04:01:00,49.0,46.0,-100.00,SSW,200,6.0,12.0,86,-99.99,,,-99.99,,2013-09-12 12:01:00,
2013-09-12 04:11:00,49.0,46.0,-100.00,SSW,200,6.0,12.0,86,-99.99,,,-99.99,,2013-09-12 12:11:00,
2013-09-12 04:21:00,49.0,46.0,-100.00,South,170,6.0,12.0,87,-99.99,,,-99.99,,2013-09-12 12:21:00,
2013-09-12 04:31:00,49.0,46.0,-100.00,South,170,6.0,12.0,87,-99.99,,,-99.99,,2013-09-12 12:31:00,
2013-09-12 04:42:00,49.0,46.0,-100.00,South,170,6.0,12.0,87,-99.99,,,-99.99,,2013-09-12 12:42:00,
2013-09-12 04:52:00,49.0,46.0,-100.00,South,180,6.0,8.0,88,-99.99,,,-99.99,,2013-09-12 12:52:00,
2013-09-12 05:02:00,49.0,46.0,-100.00,South,180,6.0,8.0,88,-99.99,,,-99.99,,2013-09-12 13:02:00,
2013-09-12 05:11:00,49.0,46.0,-100.00,South,180,6.0,8.0,88,-99.99,,,-99.99,,2013-09-12 13:11:00,
2013-09-12 05:22:00,50.0,45.0,-100.00,South,170,11.0,20.0,83,-99.99,,,-99.99,,2013-09-12 13:22:00,
2013-09-12 05:32:00,50.0,45.0,-100.00,South,170,11.0,20.0,83,-99.99,,,-99.99,,2013-09-12 13:32:00,
2013-09-12 05:42:00,50.0,45.0,-100.00,South,170,11.0,20.0,83,-99.99,,,-99.99,,2013-09-12 13:42:00,
2013-09-12 05:52:00,50.0,45.0,-100.00,South,170,11.0,19.0,82,-99.99,,,-99.99,,2013-09-12 13:52:00,
2013-09-12 06:02:00,50.0,45.0,-100.00,South,170,11.0,19.0,82,-99.99,,,-99.99,,2013-09-12 14:02:00,
2013-09-12 06:11:00,50.0,45.0,-100.00,South,170,11.0,19.0,82,-99.99,,,-99.99,,2013-09-12 14:11:00,
2013-09-12 06:22:00,49.0,47.0,-100.00,South,180,9.0,17.0,91,-99.99,,,-99.99,,2013-09-12 14:22:00,
2013-09-12 06:32:00,49.0,47.0,-100.00,South,180,9.0,17.0,91,-99.99,,,-99.99,,2013-09-12 14:32:00,
2013-09-12 06:42:00,49.0,47.0,-100.00,South,180,9.0,17.0,91,-99.99,,,-99.99,,2013-09-12 14:42:00,
2013-09-12 06:52:00,50.0,47.0,-100.00,SSE,160,8.0,14.0,90,-99.99,,,-99.99,,2013-09-12 14:52:00,
2013-09-12 07:02:00,50.0,47.0,-100.00,SSE,160,8.0,14.0,90,-99.99,,,-99.99,,2013-09-12 15:02:00,
2013-09-12 07:11:00,50.0,47.0,-100.00,SSE,160,8.0,14.0,90,-99.99,,,-99.99,,2013-09-12 15:11:00,
2013-09-12 07:22:00,50.0,46.0,-100.00,South,185,9.0,16.0,85,-99.99,,,-99.99,,2013-09-12 15:22:00,
2013-09-12 07:34:00,50.0,46.0,-100.00,South,185,9.0,16.0,85,-99.99,,,-99.99,,2013-09-12 15:34:00,
2013-09-12 07:43:00,50.0,46.0,-100.00,South,185,9.0,16.0,85,-99.99,,,-99.99,,2013-09-12 15:43:00,
2013-09-12 07:53:00,50.0,45.0,-100.00,SSE,165,10.0,19.0,82,-99.99,,,-99.99,,2013-09-12 15:53:00,
2013-09-12 08:03:00,50.0,45.0,-100.00,SSE,165,10.0,19.0,82,-99.99,,,-99.99,,2013-09-12 16:03:00,
2013-09-12 08:13:00,50.0,45.0,-100.00,SSE,165,10.0,19.0,82,-99.99,,,-99.99,,2013-09-12 16:13:00,
2013-09-12 08:23:00,50.0,44.0,-100.00,SSW,195,9.0,19.0,80,-99.99,,,-99.99,,2013-09-12 16:23:00,
2013-09-12 08:30:00,51.0,45.0,-100.00,SSE,165,16.0,31.0,82,-99.99,,,-99.99,,2013-09-12 16:30:00,
2013-09-12 08:33:00,50.0,44.0,-100.00,SSW,195,9.0,19.0,80,-99.99,,,-99.99,,2013-09-12 16:33:00,
2013-09-12 08:43:00,50.0,44.0,-100.00,SSW,195,9.0,19.0,80,-99.99,,,-99.99,,2013-09-12 16:43:00,
2013-09-12 08:53:00,51.0,46.0,-100.00,SSE,150,13.0,26.0,84,-99.99,,,-99.99,,2013-09-12 16:53:00,
2013-09-12 09:03:00,51.0,46.0,-100.00,SSE,150,13.0,26.0,84,-99.99,,,-99.99,,2013-09-12 17:03:00,
2013-09-12 09:12:00,51.0,46.0,-100.00,SSE,150,13.0,26.0,84,-99.99,,,-99.99,,2013-09-12 17:12:00,
2013-09-12 09:23:00,51.0,45.0,-100.00,SSE,165,16.0,31.0,82,-99.99,,,-99.99,,2013-09-12 17:23:00,
2013-09-12 09:53:00,51.0,45.0,-100.00,South,175,14.0,21.0,79,-99.99,,,-99.99,,2013-09-12 17:53:00,
2013-09-12 10:02:00,51.0,45.0,-100.00,South,175,14.0,21.0,79,-99.99,,,-99.99,,2013-09-12 18:02:00,
2013-09-12 10:12:00,51.0,45.0,-100.00,South,175,14.0,21.0,79,-99.99,,,-99.99,,2013-09-12 18:12:00,
2013-09-12 10:21:00,51.0,46.0,-100.00,SW,215,12.0,28.0,81,-99.99,,,-99.99,,2013-09-12 18:21:00,
2013-09-12 10:32:00,51.0,46.0,-100.00,SW,215,12.0,28.0,81,-99.99,,,-99.99,,2013-09-12 18:32:00,
2013-09-12 10:42:00,51.0,46.0,-100.00,SW,215,12.0,28.0,81,-99.99,,,-99.99,,2013-09-12 18:42:00,
2013-09-12 10:52:00,52.0,45.0,-100.00,South,190,11.0,24.0,77,-99.99,,,-99.99,,2013-09-12 18:52:00,
2013-09-12 11:02:00,52.0,45.0,-100.00,South,190,11.0,24.0,77,-99.99,,,-99.99,,2013-09-12 19:02:00,
2013-09-12 11:12:00,52.0,45.0,-100.00,South,190,11.0,24.0,77,-99.99,,,-99.99,,2013-09-12 19:12:00,
2013-09-12 11:22:00,52.0,44.0,-100.00,South,170,10.0,25.0,76,-99.99,,,-99.99,,2013-09-12 19:22:00,
2013-09-12 11:32:00,52.0,44.0,-100.00,South,170,10.0,25.0,76,-99.99,,,-99.99,,2013-09-12 19:32:00,
2013-09-12 11:42:00,52.0,44.0,-100.00,South,170,10.0,25.0,76,-99.99,,,-99.99,,2013-09-12 19:42:00,
2013-09-12 11:52:00,52.0,45.0,-100.00,SSE,165,12.0,18.0,77,-99.99,,,-99.99,,2013-09-12 19:52:00,
2013-09-12 12:02:00,52.0,45.0,-100.00,SSE,165,12.0,18.0,77,-99.99,,,-99.99,,2013-09-12 20:02:00,
2013-09-12 12:11:00,52.0,45.0,-100.00,SSE,165,12.0,18.0,77,-99.99,,,-99.99,,2013-09-12 20:11:00,
2013-09-12 12:22:00,51.0,46.0,-100.00,South,185,7.0,21.0,82,-99.99,,,-99.99,,2013-09-12 20:22:00,
2013-09-12 12:32:00,51.0,46.0,-100.00,South,185,7.0,21.0,82,-99.99,,,-99.99,,2013-09-12 20:32:00,
2013-09-12 12:42:00,51.0,46.0,-100.00,South,185,7.0,21.0,82,-99.99,,,-99.99,,2013-09-12 20:42:00,
2013-09-12 12:52:00,52.0,46.0,-100.00,SSE,150,17.0,24.0,79,-99.99,,,-99.99,,2013-09-12 20:52:00,
2013-09-12 13:02:00,52.0,46.0,-100.00,SSE,150,17.0,24.0,79,-99.99,,,-99.99,,2013-09-12 21:02:00,
2013-09-12 13:11:00,52.0,46.0,-100.00,SSE,150,17.0,24.0,79,-99.99,,,-99.99,,2013-09-12 21:11:00,
2013-09-12 13:21:00,52.0,45.0,-100.00,SSE,165,17.0,24.0,78,-99.99,,,-99.99,,2013-09-12 21:21:00,
2013-09-12 13:34:00,52.0,45.0,-100.00,SSE,165,17.0,24.0,78,-99.99,,,-99.99,,2013-09-12 21:34:00,
2013-09-12 13:43:00,52.0,45.0,-100.00,SSE,165,17.0,24.0,78,-99.99,,,-99.99,,2013-09-12 21:43:00,
2013-09-12 13:54:00,52.0,46.0,-100.00,SE,145,16.0,27.0,82,-99.99,,,-99.99,,2013-09-12 21:54:00,
2013-09-12 14:04:00,52.0,46.0,-100.00,SE,145,16.0,27.0,82,-99.99,,,-99.99,,2013-09-12 22:04:00,
2013-09-12 14:13:00,52.0,46.0,-100.00,SE,145,16.0,27.0,82,-99.99,,,-99.99,,2013-09-12 22:13:00,
2013-09-12 14:24:00,52.0,46.0,-100.00,SSE,150,16.0,26.0,80,-99.99,,,-99.99,,2013-09-12 22:24:00,
2013-09-12 14:33:00,52.0,46.0,-100.00,SSE,150,16.0,26.0,80,-99.99,,,-99.99,,2013-09-12 22:33:00,
2013-09-12 14:43:00,52.0,46.0,-100.00,SSE,150,16.0,26.0,80,-99.99,,,-99.99,,2013-09-12 22:43:00,
2013-09-12 14:54:00,51.0,47.0,-100.00,SSE,150,12.0,31.0,84,-99.99,,,-99.99,,2013-09-12 22:54:00,
2013-09-12 15:04:00,51.0,47.0,-100.00,SSE,150,12.0,31.0,84,-99.99,,,-99.99,,2013-09-12 23:04:00,
2013-09-12 15:12:00,51.0,47.0,-100.00,SSE,150,12.0,31.0,84,-99.99,,,-99.99,,2013-09-12 23:12:00,
2013-09-12 15:23:00,51.0,48.0,-100.00,SE,130,17.0,29.0,91,-99.99,,,-99.99,,2013-09-12 23:23:00,
2013-09-12 15:34:00,51.0,48.0,-100.00,SE,130,17.0,29.0,91,-99.99,,,-99.99,,2013-09-12 23:34:00,
2013-09-12 15:42:00,51.0,48.0,-100.00,SE,130,17.0,29.0,91,-99.99,,,-99.99,,2013-09-12 23:42:00,
2013-09-12 15:52:00,50.0,48.0,-100.00,SSE,150,17.0,35.0,92,-99.99,,,-99.99,,2013-09-12 23:52:00,
2013-09-12 16:01:00,50.0,48.0,-100.00,SSE,150,17.0,35.0,92,-99.99,,,-99.99,,2013-09-13 00:01:00,
2013-09-12 16:11:00,50.0,48.0,-100.00,SSE,150,17.0,35.0,92,-99.99,,,-99.99,,2013-09-13 00:11:00,
2013-09-12 16:22:00,50.0,48.0,-100.00,ESE,115,22.0,37.0,93,-99.99,,,-99.99,,2013-09-13 00:22:00,
2013-09-12 16:32:00,50.0,48.0,-100.00,ESE,115,22.0,37.0,93,-99.99,,,-99.99,,2013-09-13 00:32:00,
2013-09-12 16:42:00,50.0,48.0,-100.00,ESE,115,22.0,37.0,93,-99.99,,,-99.99,,2013-09-13 00:42:00,
2013-09-12 16:52:00,49.0,49.0,-100.00,ESE,115,21.0,45.0,97,-99.99,,,-99.99,,2013-09-13 00:52:00,
2013-09-12 17:01:00,49.0,49.0,-100.00,ESE,115,21.0,45.0,97,-99.99,,,-99.99,,2013-09-13 01:01:00,
2013-09-12 17:11:00,49.0,49.0,-100.00,ESE,115,21.0,45.0,97,-99.99,,,-99.99,,2013-09-13 01:11:00,
2013-09-12 17:21:00,49.0,49.0,-100.00,SE,135,22.0,44.0,98,-99.99,,,-99.99,,2013-09-13 01:21:00,
2013-09-12 17:32:00,49.0,49.0,-100.00,SE,135,22.0,44.0,98,-99.99,,,-99.99,,2013-09-13 01:32:00,
2013-09-12 17:42:00,49.0,49.0,-100.00,SE,135,22.0,44.0,98,-99.99,,,-99.99,,2013-09-13 01:42:00,
2013-09-12 17:52:00,49.0,49.0,-100.00,ESE,115,23.0,37.0,98,-99.99,,,-99.99,,2013-09-13 01:52:00,
2013-09-12 18:02:00,49.0,49.0,-100.00,ESE,115,23.0,37.0,98,-99.99,,,-99.99,,2013-09-13 02:02:00,
2013-09-12 18:11:00,49.0,49.0,-100.00,ESE,115,23.0,37.0,98,-99.99,,,-99.99,,2013-09-13 02:11:00,
2013-09-12 18:22:00,50.0,49.0,-100.00,SE,125,26.0,36.0,98,-99.99,,,-99.99,,2013-09-13 02:22:00,
2013-09-12 18:32:00,50.0,49.0,-100.00,SE,125,26.0,36.0,98,-99.99,,,-99.99,,2013-09-13 02:32:00,
2013-09-12 18:43:00,50.0,49.0,-100.00,SE,125,26.0,36.0,98,-99.99,,,-99.99,,2013-09-13 02:43:00,
2013-09-12 18:53:00,50.0,49.0,-100.00,SE,145,22.0,37.0,98,-99.99,,,-99.99,,2013-09-13 02:53:00,
2013-09-12 19:02:00,50.0,49.0,-100.00,SE,145,22.0,37.0,98,-99.99,,,-99.99,,2013-09-13 03:02:00,
2013-09-12 19:11:00,50.0,49.0,-100.00,SE,145,22.0,37.0,98,-99.99,,,-99.99,,2013-09-13 03:11:00,
2013-09-12 19:22:00,50.0,49.0,-100.00,SE,145,24.0,40.0,98,-99.99,,,-99.99,,2013-09-13 03:22:00,
2013-09-12 19:34:00,50.0,49.0,-100.00,SE,145,24.0,40.0,98,-99.99,,,-99.99,,2013-09-13 03:34:00,
2013-09-12 19:44:00,50.0,49.0,-100.00,SE,145,24.0,40.0,98,-99.99,,,-99.99,,2013-09-13 03:44:00,
2013-09-12 19:55:00,50.0,49.0,-100.00,ESE,110,22.0,38.0,98,-99.99,,,-99.99,,2013-09-13 03:55:00,
2013-09-12 20:04:00,50.0,49.0,-100.00,ESE,110,22.0,38.0,98,-99.99,,,-99.99,,2013-09-13 04:04:00,
2013-09-12 20:14:00,50.0,49.0,-100.00,ESE,110,22.0,38.0,98,-99.99,,,-99.99,,2013-09-13 04:14:00,
2013-09-12 20:24:00,50.0,50.0,-100.00,SE,140,26.0,38.0,98,-99.99,,,-99.99,,2013-09-13 04:24:00,
2013-09-12 20:34:00,50.0,50.0,-100.00,SE,140,26.0,38.0,98,-99.99,,,-99.99,,2013-09-13 04:34:00,
2013-09-12 20:44:00,50.0,50.0,-100.00,SE,140,26.0,38.0,98,-99.99,,,-99.99,,2013-09-13 04:44:00,
2013-09-12 20:54:00,50.0,50.0,-100.00,SE,145,21.0,36.0,98,-99.99,,,-99.99,,2013-09-13 04:54:00,
2013-09-12 21:03:00,50.0,50.0,-100.00,SE,145,21.0,36.0,98,-99.99,,,-99.99,,2013-09-13 05:03:00,
2013-09-12 21:13:00,50.0,50.0,-100.00,SE,145,21.0,36.0,98,-99.99,,,-99.99,,2013-09-13 05:13:00,
2013-09-12 21:22:00,51.0,50.0,-100.00,ESE,110,27.0,37.0,98,-99.99,,,-99.99,,2013-09-13 05:22:00,
2013-09-12 21:33:00,51.0,50.0,-100.00,ESE,110,27.0,37.0,98,-99.99,,,-99.99,,2013-09-13 05:33:00,
2013-09-12 21:43:00,51.0,50.0,-100.00,ESE,110,27.0,37.0,98,-99.99,,,-99.99,,2013-09-13 05:43:00,
2013-09-12 21:53:00,51.0,51.0,-100.00,SE,135,21.0,34.0,98,-99.99,,,-99.99,,2013-09-13 05:53:00,
2013-09-12 22:02:00,51.0,51.0,-100.00,SE,135,21.0,34.0,98,-99.99,,,-99.99,,2013-09-13 06:02:00,
2013-09-12 22:12:00,51.0,51.0,-100.00,SE,135,21.0,34.0,98,-99.99,,,-99.99,,2013-09-13 06:12:00,
2013-09-12 22:22:00,51.0,51.0,-100.00,SE,135,18.0,29.0,98,-99.99,,,-99.99,,2013-09-13 06:22:00,
2013-09-12 22:32:00,51.0,51.0,-100.00,SE,135,18.0,29.0,98,-99.99,,,-99.99,,2013-09-13 06:32:00,
2013-09-12 22:42:00,51.0,51.0,-100.00,SE,135,18.0,29.0,98,-99.99,,,-99.99,,2013-09-13 06:42:00,
2013-09-12 22:52:00,51.0,51.0,-100.00,ENE,65,7.0,20.0,98,-99.99,,,-99.99,,2013-09-13 06:52:00,
2013-09-12 23:02:00,51.0,51.0,-100.00,ENE,65,7.0,20.0,98,-99.99,,,-99.99,,2013-09-13 07:02:00,
2013-09-12 23:11:00,51.0,51.0,-100.00,ENE,65,7.0,20.0,98,-99.99,,,-99.99,,2013-09-13 07:11:00,
2013-09-12 23:22:00,51.0,51.0,-100.00,SE,145,9.0,19.0,98,-99.99,,,-99.99,,2013-09-13 07:22:00,
2013-09-12 23:33:00,51.0,51.0,-100.00,SE,145,9.0,19.0,98,-99.99,,,-99.99,,2013-09-13 07:33:00,
2013-09-12 23:42:00,51.0,51.0,-100.00,SE,145,9.0,19.0,98,-99.99,,,-99.99,,2013-09-13 07:42:00,
2013-09-12 23:52:00,52.0,51.0,-100.00,SSE,155,7.0,10.0,98,-99.99,,,-99.99,,2013-09-13 07:52:00,